This is the latest recevied weather packets stored in our database for station/object W0VI. If no packets are shown the sender has not sent any weather packets the latest 10 day(s).
| Time | Temp. | Humidity | Pressure | Rain* | Wind** | Luminosity | Snow |
|---|---|---|---|---|---|---|---|
| 1778083347 | 4.44° C | 55% | 1017.1 hPa | 0 mm | - | 287 W/m² | - |
| 1778083046 | 3.89° C | 56% | 1017.1 hPa | 0 mm | - | 235 W/m² | - |
| 1778082742 | 4.44° C | 55% | 1017.2 hPa | 0 mm | - | 240 W/m² | - |
| 1778081610 | 4.44° C | 55% | 1017 hPa | 0 mm | - | 237 W/m² | - |
| 1778081306 | 3.89° C | 56% | 1017 hPa | 0 mm | - | 246 W/m² | - |
| 1778081004 | 3.89° C | 56% | 1017 hPa | 0 mm | - | 254 W/m² | - |
| 1778080702 | 3.89° C | 56% | 1017.1 hPa | 0 mm | - | 167 W/m² | - |
| 1778080398 | 3.89° C | 55% | 1017 hPa | 0 mm | - | 165 W/m² | - |
| 1778080095 | 3.89° C | 55% | 1017.1 hPa | 0 mm | - | 183 W/m² | - |
| 1778079793 | 3.89° C | 54% | 1017 hPa | 0 mm | - | 268 W/m² | - |
| 1778079489 | 4.44° C | 54% | 1016.8 hPa | 0 mm | - | 232 W/m² | - |
| 1778079186 | 3.89° C | 56% | 1016.9 hPa | 0 mm | - | 228 W/m² | - |
| 1778078884 | 3.89° C | 56% | 1016.8 hPa | 0 mm | - | 147 W/m² | - |
| 1778078580 | 3.89° C | 56% | 1017.1 hPa | 0 mm | - | 124 W/m² | - |
| 1778078278 | 3.89° C | 56% | 1016.9 hPa | 0 mm | - | 171 W/m² | - |
| 1778077975 | 4.44° C | 55% | 1017 hPa | 0 mm | - | 190 W/m² | - |
| 1778077673 | 4.44° C | 55% | 1016.9 hPa | 0 mm | - | 170 W/m² | - |
| 1778077371 | 4.44° C | 55% | 1016.8 hPa | 0 mm | - | 173 W/m² | - |
| 1778077069 | 4.44° C | 56% | 1016.9 hPa | 0 mm | - | 244 W/m² | - |
| 1778076767 | 3.89° C | 56% | 1017 hPa | 0 mm | - | 234 W/m² | - |
| 1778076464 | 3.89° C | 56% | 1017.1 hPa | 0 mm | - | 239 W/m² | - |
| 1778076161 | 3.89° C | 57% | 1016.9 hPa | 0 mm | - | 209 W/m² | - |
| 1778075858 | 3.89° C | 57% | 1016.9 hPa | 0 mm | - | 196 W/m² | - |
| 1778075554 | 3.89° C | 58% | 1016.8 hPa | 0 mm | - | 199 W/m² | - |
| 1778075251 | 3.89° C | 57% | 1016.7 hPa | 0 mm | - | 298 W/m² | - |
* Rain latest hour (hover to see other rain measurements)
** Current wind speed in m/s (hover to see current wind gust speed)